weather.gov     
National Weather Service

Terminal Aerodrome Forecast
NWS Homepage
This page is being discontinued on March 12, 2014.
The same data is available at this site. Please update your bookmarks.
Thank you, and we apologize for the inconvenience.
Please send an email to SR-SRH.Webmaster@noaa.gov with any concerns.


Current Version
Previous Version:    01  02  03  04  05  06  07  08  09  10  11  12  13  14  15  16  17  18  19  20  21  22  23  
[Printable]
408
FTUS44 KSJT 310500
TAFBBD
TAF
KBBD 310520Z 3106/0106 15007KT P6SM SCT120
     FM310800 VRB05KT P6SM VCSH BKN090
     FM311200 32009KT P6SM VCSH SCT020 BKN100
     FM311700 34010KT P6SM BKN050
     FM010000 02006KT P6SM BKN120=


U.S. Dept. of Commerce
NOAA National Weather Service
1325 East West Highway
Silver Spring, MD 20910
E-mail: w-nws.webmaster@noaa.gov
Page last modified: May 16, 2007
NATIONAL WEATHER SERVICE: for Safety, for Work, for Fun - FOR LIFE